FENGYUN 1C DEB, 30964

Orbit data source: Space-Track

FENGYUN 1C DEB, 30964 is space debris in SSO originally from a launch on Mon, 10 May 1999 UTC launched from the Taiyaun Space Center, China (TSC). Fengyun 1C debris stems from the Chinese weather satellite Fengyun-1C, which was intentionally destroyed by a Chinese anti-satellite missile in 2007. This event dramatically increased the amount of space debris, with thousands of trackable fragments posing hazards to satellites and human spaceflight. The Fengyun 1C debris cloud has become a focal point in discussions about space sustainability and the need for international regulations to prevent the creation of new debris.

Loading next visibility...
Identifier
30964, 1999-025BBE
Orbit
SSO
Country
Flag of CNCN / PRC
Related business
Manufacturer
Unknown
Mission
Spacecraft
Bus & Motor
Unknown
Mass
Unknown
Launch date (UTC)
1999-05-10 (27 years ago)
Launch vehicle
Unknown
Launch site
Taiyaun Space Center, China (TSC)
Object type
Payload
Rocket body
Debris
Shape & HBR
Unknown shape, 0.1 m
Radar Cross Section
Small (<0.1 m²)

Expand to show TLE details & history
Last TLE update: 2 months ago

TLE from 2 months ago
0 FENGYUN 1C DEB
1 30964U 99025BBE 26175.12561521  .00002033  00000-0  12615-2 0  9996
2 30964  98.6811 137.8112 0141256  56.4289   3.5576 14.01333164981036
Epoch: 2026-06-24T03:00Z
TLE epoch observation values (Epoch: 2026-06-24T03:00:53.154Z)
Latitude
59.06515°
Longitude
165.62323°
Altitude
796.676 km
Speed
7.513 km/s
True Right ascension
08h 12m 31s
True Declination
58° 54' 51"
Sunlit
Object was in daylight at epoch
Visualization orbit readout
Latitude
Unknown
Longitude
Unknown
Altitude
Unknown
Speed
Unknown
Apparent Right ascension
Unknown
Apparent Declination
Unknown
Sunlit
N/A
Visualization observer readout
Local Sidereal Time
01:59:26
Azimuth
Unknown
Elevation
Unknown
Doppler factor
Unknown
Orbital elements
Apogee altitude
988.979 km
Perigee altitude
783.748 km
Semi-major axis
7,264.501 km
Eccentricity
0.01413
Inclination
98.6811°
RAAN
137.8112°
Arg. of periapsis
56.4289°
True anomaly
3.65984°
Mean anomaly
3.5576°
Eccentric anomaly
3.60854°
Mean motion
3.50538 °/min
Orbital period
102.7 mins
BSTAR
0.0012615
Loading maneuver chart data...
Computing Atmospheric mass density...

Documentation

Showing up to 5 results
|